Location: Chiroubles
(46.1812°N, 4.6660°E)
Time: 01:20:31
(UTC+00:00)

Cosmos 2173 Rocket - Pass Details

Date: 15 August 2020
Orbit: 945 x 1000 km, 82.9° (Epoch: 19 September)

Event Time Altitude Azimuth Distance (km) Brightness Sun altitude
Exits shadow 21:41:11 30° 205° (SSW) 1,648 4.9 -23.9°
Maximum altitude 21:44:21 69° 280° (W) 1,022 4.1 -24.2°
Drops below altitude 10° 21:50:27 10° 4° (N) 2,680 7.0 -24.8°
Sets 21:52:58 0° 7° (N) 3,627 7.8 -25.0°
